GSAT0223 (GALILEO 27)

Last updated on Thu Sep 03 2026 00:02:49 GMT+0000 (Coordinated Universal Time)

1 49809U 21116A 26245.47206148 -.00000080 00000+0 00000+0 0 9999 2 49809 57.1297 339.5890 0004022 223.7478 167.6349 1.70475983 29507
UTC large
Height (km)
Speed (km/s)
/
Latitude / Longitude
Inclination (degrees)
Orbital Period (minutes)
Azimuth
Elevation
Range (km)
Doppler Factor

Next 0 passes for location: London (51.5072 / 0.1276)

No passes found over London.
GSAT0223 (GALILEO 27)